FW3274 Weather Reports


Display with metric or nautical units.
time (UTC)temp
F
wind
direction
speed
MPH
gust
MPH
rain 1hr
in
rain 24hr
in
rain mn
in
humidity
%
barometer
mb
20260905064532 77 90 0.0 0.0 0.00 0.00 0.00 66 1010.2
20260905063030 77 86 0.0 0.0 0.00 0.00 0.00 68 1010.4
20260905061531 77 67 0.0 0.0 0.00 0.00 0.00 68 1010.1
20260905060026 75 67 0.0 0.0 0.00 0.00 0.00 71 1010.1
20260905054538 73 67 0.0 0.0 0.00 0.00 0.00 76 1010.2
20260905053022 71 73 0.0 0.0 0.00 0.00 0.00 76 1010.2
20260905051521 71 75 0.0 0.0 0.00 0.00 0.00 77 1009.8
20260905050021 70 75 0.0 0.0 0.00 0.00 0.00 77 1009.8
20260905044521 71 75 0.0 0.0 0.00 0.00 0.00 77 1009.8
20260905043025 71 75 0.0 0.0 0.00 0.00 0.00 77 1010.0
20260905041517 71 75 0.0 0.0 0.00 0.00 0.00 76 1010.0
20260905040021 71 75 0.0 0.0 0.00 0.00 0.00 76 1010.0
20260905034516 71 75 0.0 0.0 0.00 0.00 0.00 76 1010.0
20260905033015 71 75 0.0 0.0 0.00 0.00 0.00 76 1010.1
20260905031513 71 75 0.0 0.0 0.00 0.00 0.00 76 1010.1
20260905030014 71 75 0.0 0.0 0.00 0.00 0.00 76 1010.2
20260905024514 71 75 0.0 0.0 0.00 0.00 0.00 76 1010.1
20260905023019 71 75 0.0 0.0 0.00 0.00 0.00 76 1010.0
20260905021512 71 75 0.0 0.0 0.00 0.00 0.00 76 1010.1
20260905020011 71 76 0.0 0.0 0.00 0.00 0.00 76 1010.2
20260905014510 71 84 0.0 0.0 0.00 0.00 0.00 75 1010.1
20260905013009 71 85 0.0 0.0 0.00 0.00 0.00 74 1010.1
20260905011508 71 200 0.0 0.0 0.00 0.00 0.00 72 1010.2
20260905010008 71 210 0.0 0.0 0.00 0.00 0.00 70 1010.3
20260905004507 71 211 0.0 0.0 0.00 0.00 0.00 70 1010.2
20260905003003 72 211 0.0 0.0 0.00 0.00 0.00 71 1010.4
20260905001501 72 211 0.0 0.0 0.00 0.00 0.00 72 1010.5
20260905000104 72 211 0.0 0.0 0.00 0.00 0.00 71 1010.6
20260904234559 72 211 0.0 0.0 0.00 0.00 0.00 69 1010.7
20260904233056 73 211 0.0 0.0 0.00 0.00 0.00 68 1010.8
20260904231555 73 211 0.0 0.0 0.00 0.00 0.00 67 1011.0
20260904230054 73 211 0.0 0.0 0.00 0.00 0.00 67 1011.1
20260904224603 73 211 0.0 0.0 0.00 0.00 0.00 66 1011.1
20260904223051 74 211 0.0 0.0 0.00 0.00 0.00 66 1011.1
20260904221549 74 211 0.0 0.0 0.00 0.00 0.00 65 1011.1
20260904220046 74 211 0.0 0.0 0.00 0.00 0.00 64 1011.2
20260904214549 75 211 0.0 0.0 0.00 0.00 0.00 65 1011.3
20260904213045 75 211 0.0 0.0 0.00 0.00 0.00 64 1011.3
20260904211545 76 211 0.0 0.0 0.00 0.00 0.00 64 1011.3
20260904210051 76 211 0.0 0.0 0.00 0.00 0.00 64 1011.5
20260904204544 76 211 0.0 0.0 0.00 0.00 0.00 65 1011.4
20260904203044 77 211 0.0 0.0 0.00 0.00 0.00 65 1011.5
20260904201552 77 211 0.0 0.0 0.00 0.00 0.00 65 1011.5
20260904200042 78 211 0.0 0.0 0.00 0.00 0.00 65 1011.5
20260904194558 78 211 0.0 0.0 0.00 0.00 0.00 64 1011.6
20260904193042 79 211 0.0 0.0 0.00 0.00 0.00 63 1011.6
20260904191541 79 211 0.0 0.0 0.00 0.00 0.00 61 1011.6
20260904190040 80 211 0.0 0.0 0.00 0.00 0.00 60 1011.6
20260904184540 81 211 0.0 0.0 0.00 0.00 0.00 58 1011.5
20260904183040 81 211 0.0 0.0 0.00 0.00 0.00 57 1011.3
20260904181539 81 211 0.0 0.0 0.00 0.00 0.00 57 1011.1
20260904180038 82 211 0.0 0.0 0.00 0.00 0.00 55 1010.8
20260904174544 83 211 0.0 0.0 0.00 0.00 0.00 57 1010.8
20260904173046 83 211 0.0 0.0 0.00 0.00 0.00 56 1010.8
20260904171540 85 140 0.0 0.0 0.00 0.00 0.00 58 1010.8
20260904170039 86 231 0.0 2.0 0.00 0.00 0.00 56 1010.8
20260904164537 87 205 0.0 5.0 0.00 0.00 0.00 54 1010.9
20260904163037 88 223 0.0 5.0 0.00 0.00 0.00 55 1010.8
20260904161540 89 184 0.0 5.0 0.00 0.00 0.00 52 1010.7
20260904160035 90 194 0.0 6.0 0.00 0.00 0.00 51 1010.8
20260904154533 90 212 0.0 5.0 0.00 0.00 0.00 51 1010.9
20260904153033 91 242 0.0 7.0 0.00 0.00 0.00 51 1010.9
20260904151531 91 59 0.0 3.0 0.00 0.00 0.00 50 1011.0
20260904150051 92 219 0.0 3.0 0.00 0.00 0.00 45 1011.1
20260904144528 92 222 0.0 2.0 0.00 0.00 0.00 42 1011.2
20260904143027 92 226 0.0 3.0 0.00 0.00 0.00 43 1011.2
20260904141523 92 276 0.0 5.0 0.00 0.00 0.00 40 1011.4
20260904140022 92 166 0.0 3.0 0.00 0.00 0.00 41 1011.7
20260904134538 92 248 1.0 6.0 0.00 0.00 0.00 41 1011.8
20260904133018 92 209 1.0 7.0 0.00 0.00 0.00 40 1012.0
20260904131520 92 211 0.0 8.0 0.00 0.00 0.00 42 1012.0
20260904130028 92 196 0.0 6.0 0.00 0.00 0.00 42 1012.2
20260904124513 92 286 0.0 5.0 0.00 0.00 0.00 42 1012.3
20260904123012 91 261 0.0 2.0 0.00 0.00 0.00 44 1012.4
20260904121510 90 231 0.0 7.0 0.00 0.00 0.00 43 1012.5
20260904120008 90 190 0.0 2.0 0.00 0.00 0.00 44 1012.6
20260904114514 90 236 0.0 1.0 0.00 0.00 0.00 45 1012.7
20260904113005 90 279 0.0 6.0 0.00 0.00 0.00 45 1012.9
20260904111503 90 196 0.0 4.0 0.00 0.00 0.00 45 1013.0
20260904110003 90 220 0.0 7.0 0.00 0.00 0.00 44 1013.2
20260904104502 89 220 0.0 5.0 0.00 0.00 0.00 46 1013.2
20260904103003 89 225 0.0 7.0 0.00 0.00 0.00 44 1013.4
20260904101559 89 94 0.0 2.0 0.00 0.00 0.00 44 1013.4
20260904100057 88 202 0.0 1.0 0.00 0.00 0.00 45 1013.5
20260904094602 86 225 0.0 4.0 0.00 0.00 0.00 48 1013.6
20260904093105 87 206 0.0 4.0 0.00 0.00 0.00 47 1013.7
20260904091555 87 242 0.0 0.0 0.00 0.00 0.00 46 1013.7
20260904090053 86 80 0.0 0.0 0.00 0.00 0.00 46 1013.6
20260904084552 87 72 0.0 0.0 0.00 0.00 0.00 47 1013.7
20260904083050 86 74 0.0 0.0 0.00 0.00 0.00 48 1013.7
20260904081547 85 61 0.0 0.0 0.00 0.00 0.00 49 1013.7
20260904080045 85 63 0.0 0.0 0.00 0.00 0.00 52 1013.8
20260904074542 84 74 0.0 0.0 0.00 0.00 0.00 53 1013.7
20260904073043 84 86 0.0 0.0 0.00 0.00 0.00 49 1013.7
20260904071536 82 293 0.0 0.0 0.00 0.00 0.00 54 1013.6
20260904070033 81 291 0.0 0.0 0.00 0.00 0.00 57 1013.5